Home > Weather > Pully > Past weeks

Flag for Switzerland Past Weather in Pully, Vaud, Switzerland — Yesterday and Last 2 Weeks

Now
78 °F

Warm.


Feels Like: 80 °F
Forecast: 62 / 74 °F
Wind: 3 mph from Southwest

Location: Aigle

Current Time: Jun 24, 2016 at 10:28:41 PM

Latest Report: Jun 24, 2016 at 9:00 PM


Visibility: N/A

Pressure: 29.91 "Hg

Humidity: 61%

Dew Point: 64 °F

Location of PullyLocation

Past Weather in Pully — Graph

°F

Pully Temperature Yesterday

Maximum temperature yesterday: 85 °F (at 7:00 PM)
Minimum temperature yesterday: 63 °F (at 6:00 AM)
Average temperature yesterday: 75 °F

High & Low Weather Summary for the Past Weeks

 TemperatureHumidityPressure
High87 °F (Jun 24, 5:00 PM)96% (Jun 13, 6:00 AM)30.27 "Hg (Jun 13, 6:00 AM)
Low50 °F (Jun 20, 6:00 AM)34% (Jun 24, 5:00 PM)29.56 "Hg (Jun 15, 7:00 PM)
Average62 °F79%29.95 "Hg
* Reported Jun 9 8:00 PM — Jun 24 8:00 PM, Pully, Weather by CustomWeather, © 2016

Note: Actual official high and low records may vary slightly from our data, if they occured in-between our weather recording intervals... More about our weather records

Advertising

Pully Weather History for the Previous 24 Hours

Scroll right to see more
 ConditionsComfort  
Time TempWeatherWind HumidityBarometerVisibility
8:00 PM
Fri, Jun 24
81 °FScattered clouds.2 mph51%29.89 "Hg19 mi
7:00 PM83 °FWarm.5 mph50%29.89 "HgN/A
6:00 PM87 °FPleasantly warm.8 mph34%29.89 "HgN/A
5:00 PM87 °FPassing clouds.8 mph34%29.91 "Hg22 mi
4:00 PM85 °FWarm.10 mph40%29.93 "HgN/A
3:00 PM84 °FWarm.12 mph45%29.96 "HgN/A
2:00 PM84 °FPassing clouds.9 mph47%29.98 "Hg22 mi
1:00 PM84 °FWarm.7 mph48%30.01 "HgN/A
12:00 PM82 °FWarm.3 mph45%30.03 "HgN/A
11:00 AM80 °FSunny.2 mph46%30.05 "Hg25 mi
10:00 AM78 °FWarm.2 mph51%30.08 "HgN/A
9:00 AM75 °FMild.7 mph51%30.08 "HgN/A
8:00 AM72 °FSunny.3 mph64%30.09 "Hg25 mi
7:00 AM68 °FMild.3 mph91%30.11 "HgN/A
6:00 AM67 °FMild.2 mph91%30.11 "HgN/A
5:00 AM68 °FPassing clouds.3 mph88%30.10 "Hg25 mi
4:00 AM69 °FMild.3 mph88%30.10 "HgN/A
3:00 AM69 °FMild.2 mph91%30.09 "HgN/A
2:00 AM70 °FMild.2 mph87%30.09 "HgN/A
1:00 AM71 °FMild.3 mph88%30.08 "HgN/A
12:00 AM72 °FMild.3 mph88%30.08 "HgN/A
11:00 PM
Thu, Jun 23
71 °FMild.2 mph92%30.07 "HgN/A
10:00 PM75 °FMild.1 mph83%30.04 "HgN/A
Weather by CustomWeather, © 2016

See weather overviewHow to use our weather pages